{"data":{"norad_id":66018,"epoch":"2026-09-20T05:19:32.369952Z","epoch_age_seconds":127148,"freshness":"FRESH","line1":"1 66018U 25232P   26263.22190243  .00000953  00000+0  39333-4 0  9998","line2":"2 66018  53.1584 277.1810 0001296  67.5992 292.5148 15.34408276 53268","mean_motion":15.34408276,"eccentricity":0.0001296,"inclination_deg":53.1584,"raan_deg":277.181,"arg_perigee_deg":67.5992,"mean_anomaly_deg":292.5148,"bstar":3.9333e-5,"rev_number":5326,"period_min":93.847251903117,"perigee_km":461.79207259434,"apogee_km":463.56521200882,"semimajor_km":6840.8156423016,"source":"CELESTRAK","updated_at":"2026-09-21T09:00:35.770864Z"}}